Location: Newark
(36.1358°N, 115.1208°W)
Time: 12:09:20
(UTC+00:00)

S-56A Canister/Altair - Pass Details

Date: 18 February 2020
Orbit: 634 x 2498 km, 38.9° (Epoch: 05 April)

Event Time Altitude Azimuth Distance (km) Brightness Sun altitude
Rises 02:09:54 0° 291° (WNW) 5,678 13.2 -10.0°
Reaches altitude 10° 02:14:11 10° 286° (WNW) 4,422 12.6 -10.9°
Maximum altitude 02:24:50 47° 218° (SW) 1,891 9.8 -13.0°
Drops below altitude 10° 02:32:01 10° 147° (SSE) 3,003 10.3 -14.5°
Sets 02:34:24 0° 141° (SE) 3,752 10.7 -15.0°
Enters shadow 02:34:24 - 141° (SE) 3,756 10.7 -15.0°
